{"data":{"norad_id":57148,"epoch":"2026-05-25T03:40:44.027040Z","epoch_age_seconds":65724,"freshness":"FRESH","line1":"1 57148U 23090AZ  26145.15328735  .00000258  00000+0  18905-4 0  9992","line2":"2 57148  43.0021 191.8350 0001045 290.6723  69.4016 15.27575538162040","mean_motion":15.27575538,"eccentricity":0.0001045,"inclination_deg":43.0021,"raan_deg":191.835,"arg_perigee_deg":290.6723,"mean_anomaly_deg":69.4016,"bstar":1.8905e-5,"rev_number":16204,"period_min":94.267024063854,"perigee_km":482.34546156212,"apogee_km":483.77945224862,"semimajor_km":6861.1994569054,"source":"CELESTRAK","updated_at":"2026-05-25T13:38:18.249401Z"}}